{"data":{"norad_id":65278,"epoch":"2026-09-20T10:04:43.514112Z","epoch_age_seconds":124537,"freshness":"FRESH","line1":"1 65278U 25184F   26263.41994808  .00015412  00000+0  47863-3 0  9993","line2":"2 65278  97.2872 311.4082 0000679  87.6715 272.4606 15.33452194 60718","mean_motion":15.33452194,"eccentricity":6.79e-5,"inclination_deg":97.2872,"raan_deg":311.4082,"arg_perigee_deg":87.6715,"mean_anomaly_deg":272.4606,"bstar":0.00047863,"rev_number":6071,"period_min":93.90576410757,"perigee_km":465.05708584872,"apogee_km":465.98645470972,"semimajor_km":6843.6587702792,"source":"CELESTRAK","updated_at":"2026-09-21T09:00:35.564646Z"}}